| time (UTC) | temp F | wind direction | speed knots | gust knots | rain 1hr in | rain 24hr in | rain mn in | humidity % | barometer mb |
| 20260902195846 | 93 | 245 | 5.2 | 11.3 | 0.00 | 0.00 | 0.00 | 60 | 1016.2 |
| 20260902195333 | 93 | 247 | 7.8 | 10.4 | 0.00 | 0.00 | 0.00 | 60 | 1016.3 |
| 20260902194821 | 93 | 212 | 5.2 | 10.4 | 0.00 | 0.00 | 0.00 | 62 | 1016.2 |
| 20260902194550 | 92 | 230 | 5.2 | 10.4 | 0.00 | 0.00 | 0.00 | 63 | 1014.1 |
| 20260902194349 | 93 | 229 | 5.2 | 13.0 | 0.00 | 0.00 | 0.00 | 62 | 1016.4 |
| 20260902193835 | 92 | 229 | 6.1 | 13.0 | 0.00 | 0.00 | 0.00 | 62 | 1016.3 |
| 20260902193325 | 93 | 236 | 4.3 | 12.2 | 0.00 | 0.00 | 0.00 | 62 | 1016.3 |
| 20260902193035 | 92 | 231 | 7.0 | 12.2 | 0.00 | 0.00 | 0.00 | 62 | 1014.1 |
| 20260902192833 | 93 | 228 | 5.2 | 11.3 | 0.00 | 0.00 | 0.00 | 62 | 1016.4 |
| 20260902192322 | 93 | 287 | 4.3 | 15.6 | 0.00 | 0.00 | 0.00 | 61 | 1016.5 |
| 20260902191833 | 93 | 241 | 7.0 | 15.6 | 0.00 | 0.00 | 0.00 | 60 | 1016.7 |
| 20260902191536 | 93 | 210 | 7.0 | 12.2 | 0.00 | 0.00 | 0.00 | 61 | 1014.4 |
| 20260902191321 | 93 | 253 | 5.2 | 10.4 | 0.00 | 0.00 | 0.00 | 62 | 1016.7 |
| 20260902190848 | 93 | 216 | 2.6 | 9.6 | 0.00 | 0.00 | 0.00 | 63 | 1016.8 |
| 20260902190335 | 92 | 247 | 6.1 | 10.4 | 0.00 | 0.00 | 0.00 | 62 | 1016.8 |
| 20260902190024 | 92 | 220 | 6.1 | 10.4 | 0.00 | 0.00 | 0.00 | 62 | 1014.6 |
| 20260902185822 | 92 | 242 | 7.0 | 10.4 | 0.00 | 0.00 | 0.00 | 62 | 1016.8 |
| 20260902185330 | 92 | 166 | 5.2 | 9.6 | 0.00 | 0.00 | 0.00 | 64 | 1016.8 |
| 20260902184838 | 92 | 213 | 4.3 | 7.8 | 0.00 | 0.00 | 0.00 | 65 | 1016.7 |
| 20260902184538 | 91 | 240 | 3.5 | 8.7 | 0.00 | 0.00 | 0.00 | 65 | 1014.5 |
| 20260902184327 | 91 | 261 | 5.2 | 8.7 | 0.00 | 0.00 | 0.00 | 64 | 1016.8 |
| 20260902183834 | 91 | 225 | 5.2 | 10.4 | 0.00 | 0.00 | 0.00 | 64 | 1016.7 |
| 20260902183323 | 91 | 242 | 7.0 | 10.4 | 0.00 | 0.00 | 0.00 | 64 | 1016.9 |
| 20260902183102 | 91 | 274 | 5.2 | 9.6 | 0.00 | 0.00 | 0.00 | 64 | 1014.6 |
| 20260902182849 | 91 | 259 | 6.1 | 11.3 | 0.00 | 0.00 | 0.00 | 64 | 1016.8 |
| 20260902182321 | 91 | 295 | 7.0 | 11.3 | 0.00 | 0.00 | 0.00 | 63 | 1016.8 |
| 20260902181849 | 91 | 226 | 5.2 | 13.0 | 0.00 | 0.00 | 0.00 | 64 | 1016.9 |
| 20260902181536 | 91 | 178 | 5.2 | 13.0 | 0.00 | 0.00 | 0.00 | 64 | 1014.6 |
| 20260902181333 | 91 | 259 | 8.7 | 13.0 | 0.00 | 0.00 | 0.00 | 63 | 1017.0 |
| 20260902180820 | 91 | 232 | 5.2 | 12.2 | 0.00 | 0.00 | 0.00 | 63 | 1016.9 |
| 20260902180330 | 91 | 269 | 7.0 | 12.2 | 0.00 | 0.00 | 0.00 | 64 | 1017.0 |
| 20260902180039 | 91 | 232 | 7.0 | 12.2 | 0.00 | 0.00 | 0.00 | 63 | 1014.9 |
| 20260902175836 | 92 | 266 | 7.0 | 11.3 | 0.00 | 0.00 | 0.00 | 64 | 1017.1 |
| 20260902175325 | 92 | 228 | 4.3 | 9.6 | 0.00 | 0.00 | 0.00 | 65 | 1017.1 |
| 20260902174831 | 92 | 257 | 5.2 | 8.7 | 0.00 | 0.00 | 0.00 | 64 | 1017.2 |
| 20260902174521 | 92 | 260 | 6.1 | 8.7 | 0.00 | 0.00 | 0.00 | 64 | 1015.0 |
| 20260902174321 | 92 | 272 | 2.6 | 9.6 | 0.00 | 0.00 | 0.00 | 66 | 1017.2 |
| 20260902173827 | 92 | 239 | 2.6 | 8.7 | 0.00 | 0.00 | 0.00 | 65 | 1017.3 |
| 20260902173339 | 92 | 222 | 7.0 | 8.7 | 0.00 | 0.00 | 0.00 | 65 | 1017.4 |
| 20260902173028 | 92 | 317 | 1.7 | 8.7 | 0.00 | 0.00 | 0.00 | 65 | 1015.2 |
| 20260902172828 | 92 | 193 | 5.2 | 8.7 | 0.00 | 0.00 | 0.00 | 65 | 1017.5 |
| 20260902172335 | 92 | 216 | 5.2 | 8.7 | 0.00 | 0.00 | 0.00 | 65 | 1017.5 |
| 20260902171822 | 92 | 185 | 6.1 | 8.7 | 0.00 | 0.00 | 0.00 | 65 | 1017.4 |
| 20260902171531 | 91 | 217 | 4.3 | 8.7 | 0.00 | 0.00 | 0.00 | 66 | 1015.2 |
| 20260902171329 | 91 | 226 | 3.5 | 7.8 | 0.00 | 0.00 | 0.00 | 67 | 1017.5 |
| 20260902170838 | 91 | 221 | 4.3 | 7.8 | 0.00 | 0.00 | 0.00 | 67 | 1017.5 |
| 20260902170345 | 91 | 303 | 4.3 | 10.4 | 0.00 | 0.00 | 0.00 | 67 | 1017.5 |
| 20260902170138 | 91 | 237 | 4.3 | 10.4 | 0.00 | 0.00 | 0.00 | 67 | 1015.4 |
| 20260902165833 | 91 | 249 | 4.3 | 10.4 | 0.00 | 0.00 | 0.00 | 66 | 1017.6 |
| 20260902165340 | 91 | 235 | 4.3 | 10.4 | 0.00 | 0.00 | 0.00 | 66 | 1017.6 |
| 20260902164827 | 91 | 272 | 4.3 | 10.4 | 0.00 | 0.00 | 0.00 | 67 | 1017.6 |
| 20260902164541 | 90 | 237 | 5.2 | 10.4 | 0.00 | 0.00 | 0.00 | 67 | 1015.4 |
| 20260902164338 | 91 | 219 | 6.1 | 8.7 | 0.00 | 0.00 | 0.00 | 66 | 1017.6 |
| 20260902163826 | 90 | 185 | 2.6 | 7.8 | 0.00 | 0.00 | 0.00 | 68 | 1017.6 |
| 20260902163334 | 90 | 247 | 6.1 | 8.7 | 0.00 | 0.00 | 0.00 | 68 | 1017.8 |
| 20260902163023 | 89 | 201 | 4.3 | 8.7 | 0.00 | 0.00 | 0.00 | 69 | 1015.5 |
| 20260902162822 | 89 | 214 | 3.5 | 8.7 | 0.00 | 0.00 | 0.00 | 68 | 1017.7 |
| 20260902162329 | 90 | 195 | 5.2 | 9.6 | 0.00 | 0.00 | 0.00 | 69 | 1017.7 |
| 20260902161836 | 89 | 193 | 7.0 | 10.4 | 0.00 | 0.00 | 0.00 | 70 | 1017.6 |
| 20260902161524 | 89 | 205 | 5.2 | 10.4 | 0.00 | 0.00 | 0.00 | 70 | 1015.5 |
| 20260902161323 | 89 | 202 | 7.8 | 12.2 | 0.00 | 0.00 | 0.00 | 70 | 1017.7 |
| 20260902160831 | 89 | 245 | 4.3 | 7.8 | 0.00 | 0.00 | 0.00 | 71 | 1017.7 |
| 20260902160357 | 89 | 273 | 4.3 | 8.7 | 0.00 | 0.00 | 0.00 | 70 | 1017.6 |
| 20260902160026 | 88 | 249 | 5.2 | 8.7 | 0.00 | 0.00 | 0.00 | 70 | 1015.5 |
| 20260902155826 | 89 | 283 | 3.5 | 9.6 | 0.00 | 0.00 | 0.00 | 70 | 1017.8 |
| 20260902155338 | 89 | 243 | 5.2 | 9.6 | 0.00 | 0.00 | 0.00 | 71 | 1017.6 |
| 20260902154827 | 89 | 235 | 3.5 | 7.8 | 0.00 | 0.00 | 0.00 | 72 | 1017.7 |
| 20260902154537 | 88 | 271 | 1.7 | 7.8 | 0.00 | 0.00 | 0.00 | 72 | 1015.5 |
| 20260902154336 | 88 | 205 | 2.6 | 8.7 | 0.00 | 0.00 | 0.00 | 72 | 1017.8 |
| 20260902153824 | 88 | 228 | 5.2 | 10.4 | 0.00 | 0.00 | 0.00 | 72 | 1017.7 |
| 20260902153331 | 88 | 267 | 5.2 | 10.4 | 0.00 | 0.00 | 0.00 | 72 | 1017.7 |
| 20260902153040 | 87 | 217 | 5.2 | 8.7 | 0.00 | 0.00 | 0.00 | 73 | 1015.5 |
| 20260902152839 | 87 | 212 | 5.2 | 8.7 | 0.00 | 0.00 | 0.00 | 74 | 1017.7 |
| 20260902152326 | 87 | 281 | 2.6 | 10.4 | 0.00 | 0.00 | 0.00 | 74 | 1017.7 |
| 20260902151836 | 87 | 320 | 4.3 | 8.7 | 0.00 | 0.00 | 0.00 | 75 | 1017.7 |
| 20260902151523 | 86 | 237 | 3.5 | 8.7 | 0.00 | 0.00 | 0.00 | 76 | 1015.6 |
| 20260902151323 | 86 | 246 | 6.1 | 8.7 | 0.00 | 0.00 | 0.00 | 75 | 1017.8 |
| 20260902150835 | 86 | 272 | 4.3 | 7.0 | 0.00 | 0.00 | 0.00 | 75 | 1017.9 |
| 20260902150342 | 86 | 236 | 4.3 | 7.8 | 0.00 | 0.00 | 0.00 | 76 | 1018.0 |
| 20260902150052 | 85 | 235 | 5.2 | 7.8 | 0.00 | 0.00 | 0.00 | 76 | 1015.8 |
| 20260902145850 | 85 | 242 | 284.2 | 284.2 | 0.00 | 0.00 | 0.00 | 76 | 1017.6 |
| 20260902145339 | 85 | 277 | 3.5 | 8.7 | 0.00 | 0.00 | 0.00 | 76 | 1018.0 |
| 20260902144828 | 85 | 235 | 5.2 | 8.7 | 0.00 | 0.00 | 0.00 | 77 | 1018.0 |
| 20260902144542 | 84 | 241 | 5.2 | 8.7 | 0.00 | 0.00 | 0.00 | 77 | 1015.7 |
| 20260902144335 | 85 | 287 | 3.5 | 8.7 | 0.00 | 0.00 | 0.00 | 77 | 1017.9 |
| 20260902143826 | 84 | 249 | 3.5 | 7.8 | 0.00 | 0.00 | 0.00 | 77 | 1018.0 |
| 20260902143351 | 84 | 216 | 3.5 | 8.7 | 0.00 | 0.00 | 0.00 | 78 | 1018.0 |
| 20260902143040 | 83 | 264 | 4.3 | 8.7 | 0.00 | 0.00 | 0.00 | 79 | 1015.9 |
| 20260902142837 | 84 | 274 | 5.2 | 8.7 | 0.00 | 0.00 | 0.00 | 78 | 1017.9 |
| 20260902142325 | 83 | 274 | 2.6 | 7.0 | 0.00 | 0.00 | 0.00 | 80 | 1017.9 |
| 20260902141831 | 83 | 256 | 3.5 | 6.1 | 0.00 | 0.00 | 0.00 | 80 | 1017.9 |
| 20260902141523 | 82 | 232 | 2.6 | 7.0 | 0.00 | 0.00 | 0.00 | 80 | 1015.7 |
| 20260902141323 | 82 | 247 | 3.5 | 7.0 | 0.00 | 0.00 | 0.00 | 80 | 1017.8 |
| 20260902140830 | 82 | 213 | 4.3 | 7.0 | 0.00 | 0.00 | 0.00 | 81 | 1017.7 |
| 20260902140339 | 82 | 253 | 4.3 | 7.8 | 0.00 | 0.00 | 0.00 | 81 | 1017.7 |
| 20260902140027 | 81 | 244 | 4.3 | 7.8 | 0.00 | 0.00 | 0.00 | 82 | 1015.7 |
| 20260902135826 | 81 | 243 | 5.2 | 7.0 | 0.00 | 0.00 | 0.00 | 82 | 1017.8 |
| 20260902135334 | 81 | 224 | 3.5 | 7.8 | 0.00 | 0.00 | 0.00 | 83 | 1017.9 |
| 20260902134821 | 81 | 235 | 5.2 | 7.8 | 0.00 | 0.00 | 0.00 | 83 | 1017.9 |
| 20260902134532 | 80 | 211 | 4.3 | 7.8 | 0.00 | 0.00 | 0.00 | 84 | 1015.7 |
| 20260902134329 | 80 | 284 | 3.5 | 7.0 | 0.00 | 0.00 | 0.00 | 84 | 1017.9 |
| 20260902133836 | 80 | 236 | 3.5 | 7.0 | 0.00 | 0.00 | 0.00 | 85 | 1018.0 |
| 20260902133345 | 79 | 247 | 3.5 | 7.0 | 0.00 | 0.00 | 0.00 | 85 | 1017.9 |
| 20260902133032 | 78 | 228 | 3.5 | 7.0 | 0.00 | 0.00 | 0.00 | 85 | 1016.0 |
| 20260902132831 | 79 | 225 | 3.5 | 7.8 | 0.00 | 0.00 | 0.00 | 85 | 1018.0 |
| 20260902132324 | 78 | 233 | 4.3 | 7.8 | 0.00 | 0.00 | 0.00 | 86 | 1018.0 |
| 20260902131832 | 78 | 247 | 5.2 | 7.0 | 0.00 | 0.00 | 0.00 | 86 | 1017.9 |
| 20260902131521 | 77 | 266 | 3.5 | 7.0 | 0.00 | 0.00 | 0.00 | 86 | 1016.0 |
| 20260902131320 | 78 | 237 | 3.5 | 7.8 | 0.00 | 0.00 | 0.00 | 86 | 1017.9 |
| 20260902130830 | 77 | 253 | 5.2 | 7.8 | 0.00 | 0.00 | 0.00 | 86 | 1018.0 |
| 20260902130338 | 77 | 232 | 3.5 | 7.0 | 0.00 | 0.00 | 0.00 | 86 | 1017.9 |
| 20260902130032 | 77 | 231 | 2.6 | 7.0 | 0.00 | 0.00 | 0.00 | 87 | 1015.9 |
| 20260902125826 | 77 | 244 | 4.3 | 7.0 | 0.00 | 0.00 | 0.00 | 86 | 1018.0 |
| 20260902125332 | 77 | 242 | 2.6 | 6.1 | 0.00 | 0.00 | 0.00 | 87 | 1018.0 |
| 20260902124821 | 76 | 248 | 5.2 | 6.1 | 0.00 | 0.00 | 0.00 | 87 | 1018.0 |
| 20260902124530 | 76 | 251 | 3.5 | 6.1 | 0.00 | 0.00 | 0.00 | 87 | 1015.8 |
| 20260902124329 | 76 | 251 | 3.5 | 6.1 | 0.00 | 0.00 | 0.00 | 88 | 1017.9 |
| 20260902123822 | 76 | 212 | 2.6 | 6.1 | 0.00 | 0.00 | 0.00 | 88 | 1017.9 |
| 20260902123329 | 75 | 246 | 3.5 | 5.2 | 0.00 | 0.00 | 0.00 | 89 | 1017.9 |
| 20260902123056 | 75 | 245 | 2.6 | 5.2 | 0.00 | 0.00 | 0.00 | 89 | 1015.8 |
| 20260902122837 | 75 | 251 | 3.5 | 5.2 | 0.00 | 0.00 | 0.00 | 89 | 1018.0 |
| 20260902122325 | 75 | 226 | 2.6 | 6.1 | 0.00 | 0.00 | 0.00 | 90 | 1017.9 |
| 20260902121854 | 74 | 239 | 2.6 | 5.2 | 0.00 | 0.00 | 0.00 | 90 | 1017.9 |
| 20260902121520 | 74 | 226 | 0.9 | 4.3 | 0.00 | 0.00 | 0.00 | 90 | 1015.6 |
| 20260902121320 | 74 | 220 | 1.7 | 4.3 | 0.00 | 0.00 | 0.00 | 91 | 1017.7 |
| 20260902120828 | 74 | 236 | 1.7 | 4.3 | 0.00 | 0.00 | 0.00 | 91 | 1017.6 |
| 20260902120337 | 74 | 232 | 1.7 | 3.5 | 0.00 | 0.00 | 0.00 | 91 | 1017.6 |
| 20260902120100 | 73 | 235 | 1.7 | 3.5 | 0.00 | 0.00 | 0.00 | 91 | 1015.5 |
| 20260902115845 | 73 | 213 | 1.7 | 3.5 | 0.00 | 0.00 | 0.00 | 91 | 1017.5 |
| 20260902115330 | 73 | 213 | 1.7 | 3.5 | 0.00 | 0.00 | 0.00 | 91 | 1017.5 |
| 20260902114839 | 73 | 213 | 1.7 | 3.5 | 0.00 | 0.00 | 0.00 | 92 | 1017.5 |
| 20260902114531 | 73 | 212 | 0.9 | 3.5 | 0.00 | 0.00 | 0.00 | 92 | 1015.4 |
| 20260902114330 | 73 | 212 | 2.6 | 3.5 | 0.00 | 0.00 | 0.00 | 92 | 1017.4 |
| 20260902113837 | 73 | 212 | 1.7 | 3.5 | 0.00 | 0.00 | 0.00 | 91 | 1017.4 |
| 20260902113325 | 73 | 212 | 1.7 | 3.5 | 0.00 | 0.00 | 0.00 | 91 | 1017.3 |
| 20260902113032 | 72 | 212 | 0.9 | 3.5 | 0.00 | 0.00 | 0.00 | 91 | 1015.2 |
| 20260902112832 | 73 | 212 | 1.7 | 3.5 | 0.00 | 0.00 | 0.00 | 91 | 1017.3 |
| 20260902112359 | 73 | 212 | 1.7 | 3.5 | 0.00 | 0.00 | 0.00 | 91 | 1017.2 |
| 20260902111825 | 73 | 212 | 1.7 | 3.5 | 0.00 | 0.00 | 0.00 | 91 | 1017.2 |
| 20260902111634 | 72 | 212 | 1.7 | 3.5 | 0.00 | 0.00 | 0.00 | 91 | 1015.2 |
| 20260902111332 | 73 | 212 | 1.7 | 3.5 | 0.00 | 0.00 | 0.00 | 91 | 1017.3 |
| 20260902110841 | 73 | 211 | 1.7 | 3.5 | 0.00 | 0.00 | 0.00 | 91 | 1017.2 |
| 20260902110327 | 73 | 211 | 1.7 | 2.6 | 0.00 | 0.00 | 0.00 | 91 | 1017.2 |
| 20260902110039 | 72 | 211 | 0.9 | 2.6 | 0.00 | 0.00 | 0.00 | 91 | 1015.1 |
| 20260902105835 | 73 | 211 | 0.9 | 2.6 | 0.00 | 0.00 | 0.00 | 91 | 1017.1 |
| 20260902105328 | 73 | 211 | 1.7 | 2.6 | 0.00 | 0.00 | 0.00 | 91 | 1017.2 |
| 20260902104837 | 73 | 211 | 1.7 | 2.6 | 0.00 | 0.00 | 0.00 | 91 | 1017.1 |
| 20260902104525 | 72 | 211 | 0.9 | 2.6 | 0.00 | 0.00 | 0.00 | 91 | 1015.2 |
| 20260902104324 | 73 | 211 | 0.9 | 2.6 | 0.00 | 0.00 | 0.00 | 91 | 1017.1 |
| 20260902103853 | 73 | 211 | 1.7 | 2.6 | 0.00 | 0.00 | 0.00 | 91 | 1017.2 |
| 20260902103340 | 73 | 211 | 0.9 | 3.5 | 0.00 | 0.00 | 0.00 | 91 | 1017.2 |
| 20260902103029 | 73 | 211 | 0.0 | 3.5 | 0.00 | 0.00 | 0.00 | 91 | 1015.1 |
| 20260902102827 | 73 | 211 | 0.9 | 3.5 | 0.00 | 0.00 | 0.00 | 91 | 1017.1 |
| 20260902102356 | 73 | 212 | 1.7 | 3.5 | 0.00 | 0.00 | 0.00 | 91 | 1017.2 |
| 20260902101824 | 73 | 212 | 0.9 | 2.6 | 0.00 | 0.00 | 0.00 | 91 | 1017.2 |
| 20260902101535 | 73 | 212 | 0.9 | 2.6 | 0.00 | 0.00 | 0.00 | 91 | 1015.2 |
| 20260902101332 | 73 | 212 | 1.7 | 2.6 | 0.00 | 0.00 | 0.00 | 91 | 1017.2 |
| 20260902100822 | 73 | 212 | 0.9 | 1.7 | 0.00 | 0.00 | 0.00 | 90 | 1017.1 |
| 20260902100330 | 73 | 212 | 0.9 | 1.7 | 0.00 | 0.00 | 0.00 | 90 | 1017.1 |
| 20260902100052 | 73 | 212 | 0.0 | 1.7 | 0.00 | 0.00 | 0.00 | 90 | 1015.1 |
| 20260902095842 | 74 | 212 | 0.0 | 1.7 | 0.00 | 0.00 | 0.00 | 90 | 1017.1 |
| 20260902095330 | 74 | 213 | 0.9 | 1.7 | 0.00 | 0.00 | 0.00 | 90 | 1017.1 |
| 20260902094837 | 74 | 213 | 0.9 | 1.7 | 0.00 | 0.00 | 0.00 | 90 | 1017.1 |
| 20260902094528 | 73 | 213 | 0.9 | 1.7 | 0.00 | 0.00 | 0.00 | 90 | 1015.0 |
| 20260902094326 | 74 | 213 | 0.9 | 1.7 | 0.00 | 0.00 | 0.00 | 90 | 1017.0 |
| 20260902093833 | 74 | 213 | 0.9 | 1.7 | 0.00 | 0.00 | 0.00 | 90 | 1016.9 |
| 20260902093340 | 74 | 213 | 0.0 | 1.7 | 0.00 | 0.00 | 0.00 | 90 | 1016.8 |
| 20260902093048 | 73 | 213 | 0.0 | 1.7 | 0.00 | 0.00 | 0.00 | 89 | 1014.9 |
| 20260902092847 | 74 | 213 | 0.9 | 1.7 | 0.00 | 0.00 | 0.00 | 89 | 1016.9 |
| 20260902092335 | 74 | 213 | 0.0 | 1.7 | 0.00 | 0.00 | 0.00 | 89 | 1016.9 |
| 20260902091822 | 74 | 213 | 0.0 | 2.6 | 0.00 | 0.00 | 0.00 | 89 | 1016.8 |
| 20260902091555 | 74 | 213 | 0.0 | 2.6 | 0.00 | 0.00 | 0.00 | 89 | 1014.8 |
| 20260902091351 | 74 | 213 | 0.9 | 2.6 | 0.00 | 0.00 | 0.00 | 89 | 1016.9 |
| 20260902090858 | 74 | 213 | 0.0 | 2.6 | 0.00 | 0.00 | 0.00 | 89 | 1016.9 |
| 20260902090324 | 74 | 213 | 1.7 | 2.6 | 0.00 | 0.00 | 0.00 | 89 | 1016.9 |
| 20260902090033 | 74 | 213 | 0.9 | 2.6 | 0.00 | 0.00 | 0.00 | 89 | 1014.8 |
| 20260902085831 | 74 | 213 | 1.7 | 2.6 | 0.00 | 0.00 | 0.00 | 89 | 1016.9 |
| 20260902085323 | 74 | 213 | 1.7 | 3.5 | 0.00 | 0.00 | 0.00 | 89 | 1016.9 |
| 20260902084829 | 74 | 213 | 1.7 | 3.5 | 0.00 | 0.00 | 0.00 | 89 | 1016.7 |
| 20260902084538 | 74 | 211 | 0.9 | 3.5 | 0.00 | 0.00 | 0.00 | 89 | 1014.6 |
| 20260902084337 | 74 | 208 | 1.7 | 3.5 | 0.00 | 0.00 | 0.00 | 89 | 1016.7 |
| 20260902083825 | 74 | 208 | 1.7 | 3.5 | 0.00 | 0.00 | 0.00 | 89 | 1016.6 |
| 20260902083334 | 74 | 208 | 1.7 | 3.5 | 0.00 | 0.00 | 0.00 | 89 | 1016.5 |
| 20260902083021 | 74 | 208 | 0.9 | 2.6 | 0.00 | 0.00 | 0.00 | 89 | 1014.5 |
| 20260902082821 | 74 | 208 | 1.7 | 2.6 | 0.00 | 0.00 | 0.00 | 89 | 1016.6 |
| 20260902082329 | 74 | 208 | 0.9 | 3.5 | 0.00 | 0.00 | 0.00 | 89 | 1016.5 |
| 20260902081856 | 74 | 208 | 1.7 | 3.5 | 0.00 | 0.00 | 0.00 | 89 | 1016.4 |
| 20260902081525 | 74 | 208 | 0.9 | 2.6 | 0.00 | 0.00 | 0.00 | 89 | 1014.4 |
| 20260902081324 | 74 | 208 | 1.7 | 2.6 | 0.00 | 0.00 | 0.00 | 89 | 1016.3 |
| 20260902080833 | 74 | 208 | 0.0 | 1.7 | 0.00 | 0.00 | 0.00 | 89 | 1016.4 |
| 20260902080324 | 75 | 208 | 0.9 | 1.7 | 0.00 | 0.00 | 0.00 | 89 | 1016.4 |
| 20260902080034 | 74 | 208 | 0.9 | 2.6 | 0.00 | 0.00 | 0.00 | 89 | 1014.2 |
| 20260902075833 | 75 | 208 | 0.9 | 2.6 | 0.00 | 0.00 | 0.00 | 89 | 1016.4 |
| 20260902075339 | 75 | 208 | 0.9 | 2.6 | 0.00 | 0.00 | 0.00 | 88 | 1016.4 |
| 20260902074827 | 75 | 208 | 0.9 | 1.7 | 0.00 | 0.00 | 0.00 | 88 | 1016.3 |
| 20260902074538 | 74 | 208 | 0.9 | 1.7 | 0.00 | 0.00 | 0.00 | 88 | 1014.2 |
| 20260902074333 | 75 | 208 | 0.9 | 1.7 | 0.00 | 0.00 | 0.00 | 88 | 1016.4 |
| 20260902073841 | 75 | 208 | 0.9 | 1.7 | 0.00 | 0.00 | 0.00 | 88 | 1016.4 |
| 20260902073328 | 75 | 208 | 0.9 | 1.7 | 0.00 | 0.00 | 0.00 | 88 | 1016.3 |
| 20260902073036 | 75 | 208 | 0.0 | 1.7 | 0.00 | 0.00 | 0.00 | 88 | 1014.2 |
| 20260902072836 | 75 | 208 | 0.0 | 2.6 | 0.00 | 0.00 | 0.00 | 88 | 1016.3 |
| 20260902072325 | 75 | 208 | 0.9 | 2.6 | 0.00 | 0.00 | 0.00 | 87 | 1016.3 |
| 20260902071832 | 75 | 208 | 0.9 | 2.6 | 0.00 | 0.00 | 0.00 | 87 | 1016.5 |
| 20260902071545 | 75 | 208 | 0.9 | 2.6 | 0.00 | 0.00 | 0.00 | 87 | 1014.3 |
| 20260902071343 | 76 | 208 | 0.9 | 2.6 | 0.00 | 0.00 | 0.00 | 87 | 1016.3 |
| 20260902070830 | 76 | 208 | 0.9 | 2.6 | 0.00 | 0.00 | 0.00 | 87 | 1016.4 |
| 20260902070337 | 76 | 208 | 1.7 | 2.6 | 0.00 | 0.00 | 0.00 | 87 | 1016.4 |
| 20260902070025 | 75 | 208 | 0.0 | 2.6 | 0.00 | 0.00 | 0.00 | 87 | 1014.3 |
| 20260902065824 | 76 | 208 | 1.7 | 2.6 | 0.00 | 0.00 | 0.00 | 87 | 1016.4 |
| 20260902065352 | 76 | 208 | 1.7 | 3.5 | 0.00 | 0.00 | 0.00 | 86 | 1016.4 |
| 20260902064838 | 76 | 208 | 0.9 | 3.5 | 0.00 | 0.00 | 0.00 | 86 | 1016.4 |
| 20260902064529 | 75 | 208 | 0.9 | 2.6 | 0.00 | 0.00 | 0.00 | 86 | 1014.3 |
| 20260902064329 | 76 | 208 | 0.9 | 2.6 | 0.00 | 0.00 | 0.00 | 86 | 1016.5 |
| 20260902063836 | 76 | 207 | 1.7 | 1.7 | 0.00 | 0.00 | 0.00 | 86 | 1016.4 |
| 20260902063343 | 76 | 207 | 0.9 | 1.7 | 0.00 | 0.00 | 0.00 | 86 | 1016.5 |
| 20260902063041 | 76 | 207 | 0.0 | 1.7 | 0.00 | 0.00 | 0.00 | 86 | 1014.4 |
| 20260902062831 | 76 | 207 | 0.9 | 3.5 | 0.00 | 0.00 | 0.00 | 86 | 1016.4 |
| 20260902062339 | 76 | 208 | 1.7 | 3.5 | 0.00 | 0.00 | 0.00 | 86 | 1016.5 |
| 20260902061830 | 76 | 207 | 1.7 | 3.5 | 0.00 | 0.00 | 0.00 | 86 | 1016.5 |
| 20260902061539 | 76 | 207 | 1.7 | 2.6 | 0.00 | 0.00 | 0.00 | 86 | 1014.4 |
| 20260902061338 | 76 | 207 | 1.7 | 2.6 | 0.00 | 0.00 | 0.00 | 86 | 1016.4 |
| 20260902060826 | 76 | 207 | 1.7 | 2.6 | 0.00 | 0.00 | 0.00 | 86 | 1016.5 |
| 20260902060354 | 77 | 206 | 0.9 | 2.6 | 0.00 | 0.00 | 0.00 | 86 | 1016.5 |
| 20260902060022 | 76 | 206 | 0.9 | 2.6 | 0.00 | 0.00 | 0.00 | 86 | 1014.3 |
| 20260902055822 | 77 | 206 | 1.7 | 2.6 | 0.00 | 0.00 | 0.00 | 86 | 1016.4 |
| 20260902055330 | 77 | 206 | 0.9 | 2.6 | 0.00 | 0.00 | 0.00 | 86 | 1016.5 |
| 20260902054838 | 77 | 206 | 1.7 | 3.5 | 0.00 | 0.00 | 0.00 | 86 | 1016.5 |
| 20260902054537 | 76 | 206 | 1.7 | 3.5 | 0.00 | 0.00 | 0.00 | 86 | 1014.4 |
| 20260902054328 | 77 | 206 | 1.7 | 3.5 | 0.00 | 0.00 | 0.00 | 86 | 1016.5 |
| 20260902053835 | 77 | 208 | 1.7 | 2.6 | 0.00 | 0.00 | 0.00 | 86 | 1016.4 |
| 20260902053343 | 77 | 209 | 1.7 | 2.6 | 0.00 | 0.00 | 0.00 | 86 | 1016.5 |
| 20260902053051 | 77 | 210 | 0.9 | 2.6 | 0.00 | 0.00 | 0.00 | 86 | 1014.4 |
| 20260902052850 | 77 | 211 | 1.7 | 2.6 | 0.00 | 0.00 | 0.00 | 86 | 1016.5 |
| 20260902052321 | 77 | 211 | 1.7 | 2.6 | 0.00 | 0.00 | 0.00 | 85 | 1016.4 |
| 20260902051828 | 77 | 212 | 0.9 | 2.6 | 0.00 | 0.00 | 0.00 | 85 | 1016.5 |
| 20260902051543 | 77 | 211 | 0.9 | 2.6 | 0.00 | 0.00 | 0.00 | 85 | 1014.3 |
| 20260902051336 | 77 | 212 | 0.9 | 1.7 | 0.00 | 0.00 | 0.00 | 85 | 1016.4 |
| 20260902050824 | 78 | 212 | 0.9 | 1.7 | 0.00 | 0.00 | 0.00 | 85 | 1016.5 |
| 20260902050333 | 78 | 212 | 0.9 | 1.7 | 0.00 | 0.00 | 0.00 | 85 | 1016.4 |
| 20260902050057 | 77 | 212 | 0.9 | 1.7 | 0.00 | 0.00 | 0.00 | 85 | 1014.4 |
| 20260902045839 | 78 | 212 | 0.9 | 1.7 | 0.00 | 0.00 | 0.00 | 85 | 1016.4 |
| 20260902045329 | 78 | 212 | 0.9 | 2.6 | 0.00 | 0.00 | 0.00 | 84 | 1016.4 |
| 20260902044836 | 78 | 212 | 0.9 | 2.6 | 0.00 | 0.00 | 0.00 | 84 | 1016.5 |
| 20260902044524 | 78 | 212 | 0.0 | 2.6 | 0.00 | 0.00 | 0.00 | 84 | 1014.3 |
| 20260902044323 | 78 | 212 | 0.9 | 2.6 | 0.00 | 0.00 | 0.00 | 84 | 1016.5 |
| 20260902043830 | 78 | 214 | 1.7 | 2.6 | 0.00 | 0.00 | 0.00 | 84 | 1016.5 |
| 20260902043322 | 78 | 214 | 0.9 | 2.6 | 0.00 | 0.00 | 0.00 | 84 | 1016.5 |
| 20260902043036 | 78 | 214 | 0.9 | 2.6 | 0.00 | 0.00 | 0.00 | 84 | 1014.4 |
| 20260902042829 | 78 | 214 | 0.9 | 3.5 | 0.00 | 0.00 | 0.00 | 84 | 1016.5 |
| 20260902042337 | 78 | 215 | 1.7 | 4.3 | 0.00 | 0.00 | 0.00 | 84 | 1016.5 |
| 20260902041824 | 78 | 220 | 1.7 | 4.3 | 0.00 | 0.00 | 0.00 | 83 | 1016.6 |
| 20260902041535 | 78 | 202 | 0.9 | 3.5 | 0.00 | 0.00 | 0.00 | 83 | 1014.4 |
| 20260902041334 | 78 | 202 | 1.7 | 4.3 | 0.00 | 0.00 | 0.00 | 83 | 1016.5 |
| 20260902040821 | 79 | 202 | 2.6 | 4.3 | 0.00 | 0.00 | 0.00 | 83 | 1016.6 |
| 20260902040329 | 79 | 202 | 1.7 | 3.5 | 0.00 | 0.00 | 0.00 | 83 | 1016.6 |
| 20260902040138 | 78 | 202 | 0.9 | 3.5 | 0.00 | 0.00 | 0.00 | 83 | 1014.4 |
| 20260902035836 | 79 | 202 | 2.6 | 3.5 | 0.00 | 0.00 | 0.00 | 83 | 1016.5 |
| 20260902035324 | 79 | 203 | 1.7 | 3.5 | 0.00 | 0.00 | 0.00 | 83 | 1016.5 |
| 20260902034836 | 79 | 202 | 1.7 | 3.5 | 0.00 | 0.00 | 0.00 | 83 | 1016.5 |
| 20260902034544 | 78 | 202 | 0.9 | 3.5 | 0.00 | 0.00 | 0.00 | 83 | 1014.4 |
| 20260902034343 | 79 | 202 | 1.7 | 3.5 | 0.00 | 0.00 | 0.00 | 83 | 1016.5 |
| 20260902033830 | 79 | 202 | 2.6 | 4.3 | 0.00 | 0.00 | 0.00 | 83 | 1016.6 |
| 20260902033338 | 79 | 212 | 1.7 | 3.5 | 0.00 | 0.00 | 0.00 | 83 | 1016.6 |
| 20260902033030 | 79 | 212 | 0.9 | 3.5 | 0.00 | 0.00 | 0.00 | 83 | 1014.3 |
| 20260902032827 | 79 | 212 | 2.6 | 3.5 | 0.00 | 0.00 | 0.00 | 83 | 1016.5 |
| 20260902032335 | 79 | 220 | 2.6 | 3.5 | 0.00 | 0.00 | 0.00 | 83 | 1016.6 |
| 20260902031823 | 79 | 206 | 2.6 | 3.5 | 0.00 | 0.00 | 0.00 | 83 | 1016.5 |
| 20260902031532 | 79 | 207 | 1.7 | 4.3 | 0.00 | 0.00 | 0.00 | 83 | 1014.4 |
| 20260902031331 | 80 | 209 | 1.7 | 4.3 | 0.00 | 0.00 | 0.00 | 83 | 1016.5 |
| 20260902030839 | 80 | 210 | 1.7 | 4.3 | 0.00 | 0.00 | 0.00 | 83 | 1016.6 |
| 20260902030325 | 80 | 201 | 1.7 | 4.3 | 0.00 | 0.00 | 0.00 | 83 | 1016.5 |
| 20260902030053 | 79 | 201 | 1.7 | 3.5 | 0.00 | 0.00 | 0.00 | 83 | 1014.4 |
| 20260902025853 | 80 | 201 | 2.6 | 4.3 | 0.00 | 0.00 | 0.00 | 83 | 1016.5 |
| 20260902025324 | 80 | 200 | 1.7 | 2.6 | 0.00 | 0.00 | 0.00 | 83 | 1016.6 |
| 20260902024833 | 80 | 200 | 2.6 | 2.6 | 0.00 | 0.00 | 0.00 | 83 | 1016.5 |
| 20260902024503 | 80 | 200 | 1.7 | 3.5 | 0.00 | 0.00 | 0.00 | 83 | 1014.4 |
| 20260902024400 | 80 | 201 | 1.7 | 3.5 | 0.00 | 0.00 | 0.00 | 83 | 1016.5 |
| 20260902023826 | 81 | 201 | 1.7 | 3.5 | 0.00 | 0.00 | 0.00 | 83 | 1016.5 |
| 20260902023333 | 81 | 198 | 1.7 | 4.3 | 0.00 | 0.00 | 0.00 | 83 | 1016.4 |
| 20260902023022 | 80 | 191 | 0.9 | 4.3 | 0.00 | 0.00 | 0.00 | 82 | 1014.4 |
| 20260902022822 | 81 | 189 | 2.6 | 4.3 | 0.00 | 0.00 | 0.00 | 82 | 1016.3 |
| 20260902022331 | 81 | 194 | 1.7 | 4.3 | 0.00 | 0.00 | 0.00 | 82 | 1016.3 |
| 20260902021838 | 81 | 192 | 1.7 | 4.3 | 0.00 | 0.00 | 0.00 | 82 | 1016.3 |
| 20260902021525 | 81 | 192 | 0.9 | 4.3 | 0.00 | 0.00 | 0.00 | 82 | 1014.1 |
| 20260902021325 | 81 | 192 | 1.7 | 4.3 | 0.00 | 0.00 | 0.00 | 82 | 1016.3 |
| 20260902020835 | 81 | 192 | 1.7 | 4.3 | 0.00 | 0.00 | 0.00 | 82 | 1016.3 |
| 20260902020326 | 81 | 193 | 2.6 | 4.3 | 0.00 | 0.00 | 0.00 | 82 | 1016.3 |
| 20260902020136 | 81 | 193 | 0.9 | 4.3 | 0.00 | 0.00 | 0.00 | 82 | 1014.2 |
| 20260902015833 | 81 | 193 | 1.7 | 5.2 | 0.00 | 0.00 | 0.00 | 82 | 1016.4 |
| 20260902015320 | 82 | 191 | 2.6 | 5.2 | 0.00 | 0.00 | 0.00 | 82 | 1016.4 |
| 20260902014828 | 82 | 200 | 2.6 | 4.3 | 0.00 | 0.00 | 0.00 | 81 | 1016.6 |
| 20260902014537 | 81 | 201 | 1.7 | 4.3 | 0.00 | 0.00 | 0.00 | 81 | 1014.3 |
| 20260902014337 | 82 | 191 | 1.7 | 4.3 | 0.00 | 0.00 | 0.00 | 81 | 1016.5 |
| 20260902013845 | 82 | 196 | 3.5 | 4.3 | 0.00 | 0.00 | 0.00 | 81 | 1016.5 |
| 20260902013333 | 82 | 195 | 1.7 | 4.3 | 0.00 | 0.00 | 0.00 | 80 | 1016.4 |
| 20260902013021 | 82 | 195 | 1.7 | 4.3 | 0.00 | 0.00 | 0.00 | 80 | 1014.3 |
| 20260902012820 | 83 | 195 | 0.9 | 2.6 | 0.00 | 0.00 | 0.00 | 80 | 1016.4 |
| 20260902012348 | 83 | 195 | 1.7 | 4.3 | 0.00 | 0.00 | 0.00 | 80 | 1016.2 |
| 20260902011834 | 83 | 194 | 2.6 | 4.3 | 0.00 | 0.00 | 0.00 | 79 | 1016.1 |
| 20260902011534 | 83 | 194 | 1.7 | 4.3 | 0.00 | 0.00 | 0.00 | 79 | 1013.9 |
| 20260902011326 | 83 | 194 | 1.7 | 3.5 | 0.00 | 0.00 | 0.00 | 79 | 1016.1 |
| 20260902010834 | 84 | 193 | 1.7 | 3.5 | 0.00 | 0.00 | 0.00 | 78 | 1016.1 |
| 20260902010321 | 84 | 193 | 1.7 | 2.6 | 0.00 | 0.00 | 0.00 | 78 | 1016.0 |
| 20260902010030 | 84 | 193 | 0.9 | 2.6 | 0.00 | 0.00 | 0.00 | 77 | 1013.7 |
| 20260902005830 | 84 | 193 | 1.7 | 2.6 | 0.00 | 0.00 | 0.00 | 77 | 1015.9 |
| 20260902005357 | 85 | 193 | 1.7 | 2.6 | 0.00 | 0.00 | 0.00 | 76 | 1015.9 |
| 20260902004846 | 85 | 195 | 1.7 | 2.6 | 0.00 | 0.00 | 0.00 | 76 | 1015.8 |
| 20260902004554 | 85 | 195 | 0.0 | 1.7 | 0.00 | 0.00 | 0.00 | 75 | 1013.6 |
| 20260902004353 | 86 | 195 | 0.9 | 2.6 | 0.00 | 0.00 | 0.00 | 75 | 1015.7 |
| 20260902003838 | 86 | 195 | 0.9 | 2.6 | 0.00 | 0.00 | 0.00 | 75 | 1015.7 |
| 20260902003326 | 86 | 195 | 0.9 | 2.6 | 0.00 | 0.00 | 0.00 | 74 | 1015.7 |
| 20260902003036 | 86 | 195 | 0.9 | 3.5 | 0.00 | 0.00 | 0.00 | 74 | 1013.5 |
| 20260902002834 | 87 | 195 | 0.9 | 2.6 | 0.00 | 0.00 | 0.00 | 74 | 1015.5 |
| 20260902002341 | 87 | 195 | 1.7 | 2.6 | 0.00 | 0.00 | 0.00 | 73 | 1015.7 |
| 20260902001829 | 88 | 195 | 0.9 | 2.6 | 0.00 | 0.00 | 0.00 | 72 | 1015.7 |
| 20260902001522 | 87 | 195 | 0.9 | 2.6 | 0.00 | 0.00 | 0.00 | 72 | 1013.7 |
| 20260902001321 | 88 | 195 | 0.9 | 3.5 | 0.00 | 0.00 | 0.00 | 71 | 1015.8 |
| 20260902000830 | 89 | 196 | 0.9 | 2.6 | 0.00 | 0.00 | 0.00 | 71 | 1015.9 |
| 20260902000337 | 89 | 196 | 1.7 | 2.6 | 0.00 | 0.00 | 0.00 | 70 | 1016.0 |
| 20260902000026 | 89 | 196 | 0.9 | 2.6 | 0.00 | 0.00 | 0.00 | 70 | 1013.8 |
| 20260901235826 | 89 | 196 | 0.9 | 2.6 | 0.00 | 0.00 | 0.00 | 69 | 1016.0 |
| 20260901235355 | 90 | 196 | 2.6 | 4.3 | 0.00 | 0.00 | 0.00 | 69 | 1016.0 |
| 20260901234823 | 90 | 195 | 0.9 | 4.3 | 0.00 | 0.00 | 0.00 | 69 | 1016.1 |
| 20260901234532 | 90 | 197 | 1.7 | 3.5 | 0.00 | 0.00 | 0.00 | 68 | 1013.9 |
| 20260901234331 | 90 | 196 | 1.7 | 2.6 | 0.00 | 0.00 | 0.00 | 68 | 1016.1 |
| 20260901233820 | 91 | 197 | 1.7 | 3.5 | 0.00 | 0.00 | 0.00 | 68 | 1016.1 |
| 20260901233328 | 91 | 201 | 1.7 | 3.5 | 0.00 | 0.00 | 0.00 | 67 | 1016.2 |
| 20260901233037 | 91 | 202 | 0.0 | 1.7 | 0.00 | 0.00 | 0.00 | 67 | 1014.0 |
| 20260901232837 | 91 | 202 | 0.9 | 2.6 | 0.00 | 0.00 | 0.00 | 67 | 1016.1 |
| 20260901232328 | 91 | 203 | 0.9 | 3.5 | 0.00 | 0.00 | 0.00 | 65 | 1016.2 |
| 20260901231835 | 91 | 203 | 1.7 | 3.5 | 0.00 | 0.00 | 0.00 | 64 | 1016.3 |
| 20260901231526 | 91 | 203 | 2.6 | 3.5 | 0.00 | 0.00 | 0.00 | 64 | 1014.1 |
| 20260901231321 | 92 | 197 | 2.6 | 4.3 | 0.00 | 0.00 | 0.00 | 64 | 1016.2 |
| 20260901230831 | 92 | 191 | 2.6 | 5.2 | 0.00 | 0.00 | 0.00 | 64 | 1016.3 |
| 20260901230339 | 92 | 191 | 3.5 | 5.2 | 0.00 | 0.00 | 0.00 | 63 | 1016.2 |
| 20260901225826 | 92 | 206 | 3.5 | 5.2 | 0.00 | 0.00 | 0.00 | 63 | 1016.2 |
| 20260901225333 | 92 | 195 | 1.7 | 6.1 | 0.00 | 0.00 | 0.00 | 63 | 1016.2 |
| 20260901224820 | 93 | 214 | 2.6 | 4.3 | 0.00 | 0.00 | 0.00 | 62 | 1016.2 |
| 20260901224535 | 92 | 195 | 2.6 | 5.2 | 0.00 | 0.00 | 0.00 | 62 | 1013.9 |
| 20260901224329 | 93 | 197 | 4.3 | 5.2 | 0.00 | 0.00 | 0.00 | 62 | 1016.2 |
| 20260901223838 | 93 | 197 | 2.6 | 4.3 | 0.00 | 0.00 | 0.00 | 62 | 1016.3 |
| 20260901223329 | 93 | 218 | 1.7 | 5.2 | 0.00 | 0.00 | 0.00 | 62 | 1016.2 |
| 20260901223106 | 92 | 219 | 2.6 | 5.2 | 0.00 | 0.00 | 0.00 | 62 | 1014.0 |
| 20260901222857 | 93 | 211 | 2.6 | 6.1 | 0.00 | 0.00 | 0.00 | 62 | 1016.2 |
| 20260901222325 | 93 | 237 | 3.5 | 6.1 | 0.00 | 0.00 | 0.00 | 61 | 1016.2 |
| 20260901221853 | 93 | 230 | 2.6 | 7.0 | 0.00 | 0.00 | 0.00 | 60 | 1016.2 |
| 20260901221502 | 92 | 235 | 4.3 | 7.0 | 0.00 | 0.00 | 0.00 | 60 | 1013.9 |
| 20260901221400 | 93 | 222 | 3.5 | 7.0 | 0.00 | 0.00 | 0.00 | 60 | 1016.1 |
| 20260901220828 | 93 | 262 | 3.5 | 6.1 | 0.00 | 0.00 | 0.00 | 60 | 1016.1 |
| 20260901220337 | 93 | 228 | 3.5 | 7.8 | 0.00 | 0.00 | 0.00 | 60 | 1016.1 |
| 20260901220029 | 93 | 249 | 4.3 | 7.8 | 0.00 | 0.00 | 0.00 | 60 | 1014.0 |
| 20260901215823 | 93 | 237 | 3.5 | 7.8 | 0.00 | 0.00 | 0.00 | 61 | 1016.1 |
| 20260901215330 | 93 | 222 | 3.5 | 7.8 | 0.00 | 0.00 | 0.00 | 60 | 1016.1 |
| 20260901214839 | 93 | 210 | 2.6 | 7.0 | 0.00 | 0.00 | 0.00 | 61 | 1016.1 |
| 20260901214529 | 93 | 202 | 4.3 | 7.0 | 0.00 | 0.00 | 0.00 | 60 | 1013.7 |
| 20260901214327 | 93 | 249 | 5.2 | 6.1 | 0.00 | 0.00 | 0.00 | 60 | 1016.0 |
| 20260901213835 | 93 | 260 | 1.7 | 7.0 | 0.00 | 0.00 | 0.00 | 61 | 1016.0 |
| 20260901213346 | 93 | 218 | 4.3 | 7.8 | 0.00 | 0.00 | 0.00 | 59 | 1016.1 |
| 20260901213134 | 92 | 218 | 5.2 | 10.4 | 0.00 | 0.00 | 0.00 | 60 | 1013.8 |
| 20260901212833 | 93 | 278 | 3.5 | 10.4 | 0.00 | 0.00 | 0.00 | 60 | 1016.1 |
| 20260901212321 | 92 | 252 | 5.2 | 9.6 | 0.00 | 0.00 | 0.00 | 60 | 1016.1 |
| 20260901211831 | 92 | 247 | 4.3 | 8.7 | 0.00 | 0.00 | 0.00 | 59 | 1016.0 |
| 20260901211540 | 92 | 222 | 4.3 | 8.7 | 0.00 | 0.00 | 0.00 | 61 | 1013.9 |
| 20260901211339 | 92 | 234 | 5.2 | 12.2 | 0.00 | 0.00 | 0.00 | 60 | 1016.1 |
| 20260901210826 | 92 | 241 | 6.1 | 12.2 | 0.00 | 0.00 | 0.00 | 60 | 1016.1 |
| 20260901210335 | 93 | 212 | 7.8 | 10.4 | 0.00 | 0.00 | 0.00 | 59 | 1016.1 |
| 20260901210026 | 92 | 249 | 7.0 | 10.4 | 0.00 | 0.00 | 0.00 | 58 | 1013.9 |
| 20260901205822 | 93 | 264 | 6.1 | 10.4 | 0.00 | 0.00 | 0.00 | 60 | 1016.1 |
| 20260901205330 | 93 | 253 | 5.2 | 10.4 | 0.00 | 0.00 | 0.00 | 61 | 1016.2 |
| 20260901204823 | 93 | 240 | 5.2 | 8.7 | 0.00 | 0.00 | 0.00 | 60 | 1016.2 |
| 20260901204539 | 92 | 200 | 3.5 | 8.7 | 0.00 | 0.00 | 0.00 | 61 | 1014.0 |
| 20260901204332 | 93 | 207 | 1.7 | 9.6 | 0.00 | 0.00 | 0.00 | 62 | 1016.3 |
| 20260901203820 | 92 | 261 | 7.0 | 9.6 | 0.00 | 0.00 | 0.00 | 61 | 1016.2 |
| 20260901203328 | 93 | 237 | 6.1 | 12.2 | 0.00 | 0.00 | 0.00 | 61 | 1016.3 |
| 20260901203041 | 92 | 218 | 4.3 | 12.2 | 0.00 | 0.00 | 0.00 | 62 | 1014.2 |
| 20260901202838 | 92 | 227 | 5.2 | 12.2 | 0.00 | 0.00 | 0.00 | 61 | 1016.3 |
| 20260901202324 | 93 | 191 | 5.2 | 10.4 | 0.00 | 0.00 | 0.00 | 62 | 1016.4 |
| 20260901201832 | 93 | 254 | 7.0 | 10.4 | 0.00 | 0.00 | 0.00 | 61 | 1016.3 |
| 20260901201521 | 93 | 247 | 5.2 | 7.8 | 0.00 | 0.00 | 0.00 | 61 | 1014.1 |
| 20260901201320 | 93 | 226 | 5.2 | 7.8 | 0.00 | 0.00 | 0.00 | 61 | 1016.4 |
| 20260901200829 | 93 | 243 | 4.3 | 9.6 | 0.00 | 0.00 | 0.00 | 61 | 1016.3 |
| 20260901200321 | 93 | 244 | 4.3 | 9.6 | 0.00 | 0.00 | 0.00 | 61 | 1016.4 |
| 20260901200029 | 92 | 212 | 2.6 | 12.2 | 0.00 | 0.00 | 0.00 | 62 | 1014.1 |